Regional Weather Roundup
Issued by NWS

Home | Current Version | Previous Version | Graphics & Text | Print | Product List | Glossary On
Versions: 1 2 3 4 5 6 7 8 9 10 11 12 13 14 15 16 17 18 19 20 21 22 23 24 25 26 27 28 29 30 31 32 33 34 35 36 37 38 39 40 41 42 43 44 45 46 47 48 49 50
168
ASUS44 KMEG 271700
RWRTN
TENNESSEE HOURLY STATE WEATHER ROUNDUP
NATIONAL WEATHER SERVICE MEMPHIS TN
1200 PM CDT THU APR 27 2017

TNZ002-004-019-021-049-052-054-088>092-271800-
WEST TENNESSEE

CITY           SKY/WX    TMP DP  RH WIND       PRES   REMARKS
MEMPHIS INTL   MOSUNNY   61  49  64 MISG      29.84S
NWS MEMPHIS      N/A     59 N/A N/A MISG        N/A
JACKSON        CLOUDY    56  50  80 W10       29.85R
DYERSBURG      CLOUDY    57  47  69 SW7       29.85R
PARIS          CLOUDY    54  46  76 SW12      29.82S
$$

TNZ008-025-027-028-033-062-065-066-271800-
NORTH MIDDLE TENNESSEE

CITY           SKY/WX    TMP DP  RH WIND       PRES   REMARKS
NASHVILLE      PTSUNNY   64  55  72 W10       29.79R
CLARKSVILLE    CLOUDY    55  48  77 W13       29.81R
SMYRNA         MOSUNNY   70  58  65 SW12      29.79R
CROSSVILLE     PTSUNNY   67  58  72 SW8G17    29.79F
$$

TNZ061-075-076-078-094-096-097-271800-
SOUTH MIDDLE TENNESSEE

CITY           SKY/WX    TMP DP  RH WIND       PRES   REMARKS
TULLAHOMA      MOSUNNY   70  55  60 SW10      29.79S
WINCHESTER     PTSUNNY   72  59  64 SW8       29.79S
MCMINNVILLE    MOSUNNY   72  59  64 SW12      29.77F
COLUMBIA         N/A     64  64 100 W12       29.79R
SHELBYVILLE    MOSUNNY   72  63  73 W9        29.79S
$$

TNZ017-018-042-046-047-271800-
NORTHEAST TENNESSEE

CITY           SKY/WX    TMP DP  RH WIND       PRES   REMARKS
TRI CITIES     CLOUDY    77  59  53 S12G23    29.77F
$$

TNZ012-013-036-069-073-074-271800-
CENTRAL EAST TENNESSEE

CITY           SKY/WX    TMP DP  RH WIND       PRES   REMARKS
KNOXVILLE      LGT RAIN  64  62  93 E3        29.76R FOG
OAK RIDGE      CLOUDY    65  62  90 VRB5      29.78R
GATLINBURG     CLOUDY    63  61  94 E3        29.76S
$$

TNZ083-085-099-271800-
SOUTHEAST TENNESSEE

CITY           SKY/WX    TMP DP  RH WIND       PRES   REMARKS
CHATTANOOGA    PTSUNNY   70  62  76 W6        29.78R
$$

SKY/WX REPORTED AS FAIR MEANS FEW OR NO CLOUDS BELOW
12 THOUSAND FEET.





USA.gov is the U.S. government's official web portal to all federal, state and local government web resources and services.